Time,TemperatureF,DewpointF,PressureIn,WindDirection,WindDirectionDegrees,WindSpeedMPH,WindSpeedGustMPH,Humidity,HourlyPrecipIn,Conditions,Clouds,dailyrainin,SoftwareType,DateUTC
2013-05-07 00:10:00,52.6,51.0,29.96,WNW,291,3.0,6.0,95,0.18,,,1.27,weatherlink.com 1.10,2013-05-07 04:10:00,
2013-05-07 00:25:00,52.6,51.0,29.96,West,261,1.0,4.0,95,0.12,,,1.29,weatherlink.com 1.10,2013-05-07 04:25:00,
2013-05-07 00:40:00,52.6,51.0,29.96,WSW,243,1.0,5.0,95,0.11,,,1.31,weatherlink.com 1.10,2013-05-07 04:40:00,
2013-05-07 00:55:00,52.6,51.0,29.96,SW,225,1.0,3.0,95,0.11,,,1.34,weatherlink.com 1.10,2013-05-07 04:55:00,
2013-05-07 01:10:00,52.6,51.0,29.95,NNW,337,1.0,8.0,95,0.09,,,1.36,weatherlink.com 1.10,2013-05-07 05:10:00,
2013-05-07 01:25:00,52.6,51.0,29.94,West,260,1.0,6.0,95,0.10,,,1.39,weatherlink.com 1.10,2013-05-07 05:25:00,
2013-05-07 01:40:00,52.6,51.0,29.94,NW,323,4.0,6.0,95,0.16,,,1.47,weatherlink.com 1.10,2013-05-07 05:40:00,
2013-05-07 01:55:00,52.6,51.0,29.93,WNW,287,0.0,3.0,95,0.23,,,1.57,weatherlink.com 1.10,2013-05-07 05:55:00,
2013-05-07 02:10:00,52.5,51.0,29.92,NNW,335,0.0,4.0,95,0.32,,,1.68,weatherlink.com 1.10,2013-05-07 06:10:00,
2013-05-07 02:25:00,52.5,51.0,29.93,West,266,1.0,5.0,95,0.34,,,1.73,weatherlink.com 1.10,2013-05-07 06:25:00,
2013-05-07 02:40:00,52.5,51.0,29.91,NNW,330,3.0,7.0,95,0.33,,,1.80,weatherlink.com 1.10,2013-05-07 06:40:00,
2013-05-07 02:55:00,52.4,51.0,29.91,WNW,290,1.0,4.0,95,0.33,,,1.90,weatherlink.com 1.10,2013-05-07 06:55:00,
2013-05-07 03:10:00,52.4,51.0,29.91,SSW,201,1.0,5.0,95,0.33,,,2.01,weatherlink.com 1.10,2013-05-07 07:10:00,
2013-05-07 03:25:00,52.4,51.0,29.91,WSW,243,0.0,5.0,95,0.40,,,2.13,weatherlink.com 1.10,2013-05-07 07:25:00,
2013-05-07 03:40:00,52.4,51.0,29.91,NW,321,0.0,8.0,95,0.41,,,2.21,weatherlink.com 1.10,2013-05-07 07:40:00,
2013-05-07 03:55:00,52.4,51.0,29.91,NW,316,2.0,5.0,95,0.38,,,2.28,weatherlink.com 1.10,2013-05-07 07:55:00,
2013-05-07 04:10:00,52.5,51.0,29.91,North,359,0.0,5.0,95,0.31,,,2.32,weatherlink.com 1.10,2013-05-07 08:10:00,
2013-05-07 04:25:00,52.5,51.0,29.91,WNW,297,1.0,6.0,95,0.24,,,2.37,weatherlink.com 1.10,2013-05-07 08:25:00,
2013-05-07 04:40:00,52.5,51.0,29.91,West,278,1.0,5.0,95,0.17,,,0.00,weatherlink.com 1.10,2013-05-07 08:40:00,
2013-05-07 04:55:00,52.6,51.0,29.91,SW,231,2.0,6.0,95,0.12,,,0.02,weatherlink.com 1.10,2013-05-07 08:55:00,
2013-05-07 05:10:00,52.6,51.0,29.90,SE,139,2.0,6.0,95,0.09,,,0.03,weatherlink.com 1.10,2013-05-07 09:10:00,
2013-05-07 05:25:00,52.7,51.0,29.90,NW,318,2.0,5.0,95,0.07,,,0.06,weatherlink.com 1.10,2013-05-07 09:25:00,
2013-05-07 05:40:00,52.7,51.0,29.91,West,274,0.0,5.0,95,0.18,,,0.18,weatherlink.com 1.10,2013-05-07 09:40:00,
2013-05-07 05:55:00,52.5,51.0,29.90,West,276,1.0,7.0,95,0.29,,,0.31,weatherlink.com 1.10,2013-05-07 09:55:00,
2013-05-07 06:10:00,52.6,51.0,29.91,WNW,294,0.0,5.0,95,0.42,,,0.45,weatherlink.com 1.10,2013-05-07 10:10:00,
2013-05-07 06:25:00,52.6,51.0,29.92,NNW,345,1.0,3.0,95,0.46,,,0.52,weatherlink.com 1.10,2013-05-07 10:25:00,
2013-05-07 06:40:00,52.7,51.0,29.92,WNW,298,2.0,3.0,95,0.35,,,0.54,weatherlink.com 1.10,2013-05-07 10:40:00,
2013-05-07 06:55:00,52.8,52.0,29.93,NW,310,0.0,3.0,95,0.27,,,0.59,weatherlink.com 1.10,2013-05-07 10:55:00,
2013-05-07 07:10:00,52.8,52.0,29.92,WNW,300,0.0,2.0,95,0.16,,,0.61,weatherlink.com 1.10,2013-05-07 11:10:00,
2013-05-07 07:25:00,52.7,51.0,29.92,NNE,30,0.0,2.0,95,0.15,,,0.67,weatherlink.com 1.10,2013-05-07 11:25:00,
2013-05-07 07:40:00,52.7,51.0,29.92,NNW,335,0.0,0.0,95,0.19,,,0.73,weatherlink.com 1.10,2013-05-07 11:40:00,
2013-05-07 07:55:00,52.6,51.0,29.92,NNW,328,1.0,3.0,95,0.18,,,0.77,weatherlink.com 1.10,2013-05-07 11:55:00,
2013-05-07 08:10:00,52.6,51.0,29.92,NNW,340,2.0,3.0,95,0.25,,,0.86,weatherlink.com 1.10,2013-05-07 12:10:00,
2013-05-07 08:25:00,52.6,51.0,29.92,SSW,198,1.0,3.0,95,0.27,,,0.95,weatherlink.com 1.10,2013-05-07 12:25:00,
2013-05-07 08:40:00,52.7,51.0,29.92,East,98,0.0,4.0,95,0.28,,,1.01,weatherlink.com 1.10,2013-05-07 12:40:00,
2013-05-07 08:55:00,52.9,52.0,29.93,WNW,297,1.0,3.0,95,0.28,,,1.05,weatherlink.com 1.10,2013-05-07 12:55:00,
2013-05-07 09:10:00,53.0,52.0,29.92,South,184,1.0,2.0,95,0.29,,,1.15,weatherlink.com 1.10,2013-05-07 13:10:00,
2013-05-07 09:25:00,52.9,52.0,29.92,West,271,1.0,5.0,95,0.34,,,1.30,weatherlink.com 1.10,2013-05-07 13:25:00,
2013-05-07 09:40:00,53.0,52.0,29.91,NNW,334,0.0,6.0,95,0.43,,,1.44,weatherlink.com 1.10,2013-05-07 13:40:00,
2013-05-07 09:55:00,53.0,52.0,29.91,SSW,195,1.0,9.0,95,0.47,,,1.52,weatherlink.com 1.10,2013-05-07 13:55:00,
2013-05-07 10:10:00,53.3,52.0,29.91,West,259,0.0,4.0,95,0.38,,,1.53,weatherlink.com 1.10,2013-05-07 14:10:00,
2013-05-07 10:26:00,53.5,52.0,29.91,SW,219,0.0,3.0,95,0.27,,,1.58,weatherlink.com 1.10,2013-05-07 14:26:00,
2013-05-07 10:42:00,53.2,52.0,29.92,West,273,1.0,5.0,95,0.18,,,1.64,weatherlink.com 1.10,2013-05-07 14:42:00,
2013-05-07 10:57:00,53.0,52.0,29.92,West,270,1.0,7.0,95,0.13,,,1.65,weatherlink.com 1.10,2013-05-07 14:57:00,
2013-05-07 11:15:00,52.4,51.0,29.92,SW,235,0.0,9.0,95,0.26,,,1.81,weatherlink.com 1.10,2013-05-07 15:15:00,
2013-05-07 11:28:00,52.2,51.0,29.92,SW,215,2.0,6.0,95,0.29,,,1.91,weatherlink.com 1.10,2013-05-07 15:28:00,
2013-05-07 11:43:00,52.2,51.0,29.91,SW,233,0.0,6.0,95,0.33,,,1.97,weatherlink.com 1.10,2013-05-07 15:43:00,
2013-05-07 11:58:00,52.2,51.0,29.91,South,184,2.0,6.0,95,0.34,,,2.00,weatherlink.com 1.10,2013-05-07 15:58:00,
2013-05-07 12:14:00,52.5,51.0,29.91,SW,218,1.0,6.0,95,0.26,,,2.07,weatherlink.com 1.10,2013-05-07 16:14:00,
2013-05-07 12:28:00,52.6,51.0,29.90,SW,216,3.0,6.0,95,0.20,,,2.12,weatherlink.com 1.10,2013-05-07 16:28:00,
2013-05-07 12:45:00,56.1,55.0,29.89,SE,127,0.0,9.0,96,0.17,,,2.14,weatherlink.com 1.10,2013-05-07 16:45:00,
2013-05-07 13:00:00,56.1,54.0,29.89,SSW,192,2.0,7.0,94,0.14,,,2.14,weatherlink.com 1.10,2013-05-07 17:00:00,
2013-05-07 13:15:00,54.6,53.0,29.89,SSW,200,1.0,6.0,94,0.14,,,2.22,weatherlink.com 1.10,2013-05-07 17:15:00,
2013-05-07 13:30:00,54.4,53.0,29.89,WSW,256,1.0,3.0,94,0.11,,,2.23,weatherlink.com 1.10,2013-05-07 17:30:00,
2013-05-07 13:45:00,54.3,53.0,29.90,NW,307,0.0,5.0,94,0.14,,,2.28,weatherlink.com 1.10,2013-05-07 17:45:00,
2013-05-07 14:02:00,54.9,54.0,29.89,NE,39,1.0,5.0,95,0.17,,,2.32,weatherlink.com 1.10,2013-05-07 18:02:00,
2013-05-07 14:17:00,54.4,53.0,29.89,NNW,328,2.0,4.0,94,0.11,,,2.33,weatherlink.com 1.10,2013-05-07 18:17:00,
2013-05-07 14:31:00,54.3,53.0,29.89,WSW,256,1.0,4.0,95,0.10,,,2.34,weatherlink.com 1.10,2013-05-07 18:31:00,
2013-05-07 14:47:00,54.4,53.0,29.89,NNW,335,0.0,3.0,95,0.07,,,2.35,weatherlink.com 1.10,2013-05-07 18:47:00,
2013-05-07 15:07:00,54.7,53.0,29.88,NW,318,2.0,3.0,95,0.05,,,2.37,weatherlink.com 1.10,2013-05-07 19:07:00,
2013-05-07 15:18:00,54.9,54.0,29.88,NW,309,0.0,4.0,95,0.05,,,2.38,weatherlink.com 1.10,2013-05-07 19:18:00,
2013-05-07 15:33:00,55.3,54.0,29.86,SSW,200,0.0,4.0,95,0.04,,,2.38,weatherlink.com 1.10,2013-05-07 19:33:00,
2013-05-07 15:48:00,55.0,54.0,29.86,SW,229,1.0,5.0,95,0.04,,,2.39,weatherlink.com 1.10,2013-05-07 19:48:00,
2013-05-07 16:03:00,54.9,54.0,29.85,SSW,212,0.0,2.0,95,0.02,,,2.39,weatherlink.com 1.10,2013-05-07 20:03:00,
2013-05-07 16:18:00,55.2,54.0,29.85,NW,309,2.0,2.0,95,0.01,,,2.39,weatherlink.com 1.10,2013-05-07 20:18:00,
2013-05-07 16:33:00,54.8,53.0,29.85,ESE,114,1.0,3.0,95,0.09,,,2.47,weatherlink.com 1.10,2013-05-07 20:33:00,
2013-05-07 16:50:00,54.9,54.0,29.84,SSW,201,1.0,3.0,95,0.09,,,2.48,weatherlink.com 1.10,2013-05-07 20:50:00,
2013-05-07 17:05:00,54.7,53.0,29.85,South,179,0.0,0.0,95,0.09,,,2.48,weatherlink.com 1.10,2013-05-07 21:05:00,
2013-05-07 17:20:00,54.4,53.0,29.84,NW,309,0.0,3.0,95,0.09,,,2.48,weatherlink.com 1.10,2013-05-07 21:20:00,
2013-05-07 17:35:00,54.2,53.0,29.85,NW,315,0.0,2.0,95,0.00,,,2.48,weatherlink.com 1.10,2013-05-07 21:35:00,
2013-05-07 17:50:00,54.1,53.0,29.85,SW,218,0.0,2.0,95,0.02,,,2.50,weatherlink.com 1.10,2013-05-07 21:50:00,
2013-05-07 18:06:00,52.5,51.0,29.84,SW,235,2.0,6.0,95,0.03,,,2.51,weatherlink.com 1.10,2013-05-07 22:06:00,
2013-05-07 18:24:00,51.5,50.0,29.85,SSW,207,1.0,2.0,95,0.14,,,2.62,weatherlink.com 1.10,2013-05-07 22:24:00,
2013-05-07 18:37:00,51.2,50.0,29.85,SW,214,0.0,5.0,95,0.27,,,2.76,weatherlink.com 1.10,2013-05-07 22:37:00,
2013-05-07 18:51:00,49.6,48.0,29.84,West,271,0.0,2.0,95,0.59,,,3.09,weatherlink.com 1.10,2013-05-07 22:51:00,
2013-05-07 19:06:00,49.4,48.0,29.83,SSW,207,0.0,4.0,95,0.97,,,3.48,weatherlink.com 1.10,2013-05-07 23:06:00,
2013-05-07 19:23:00,49.4,48.0,29.84,SW,219,1.0,5.0,95,1.08,,,3.71,weatherlink.com 1.10,2013-05-07 23:23:00,
2013-05-07 19:38:00,49.5,48.0,29.84,SE,139,1.0,5.0,95,0.94,,,3.73,weatherlink.com 1.10,2013-05-07 23:38:00,
2013-05-07 19:56:00,49.1,48.0,29.86,SW,215,2.0,9.0,95,0.58,,,3.74,weatherlink.com 1.10,2013-05-07 23:56:00,
2013-05-07 20:08:00,49.1,48.0,29.86,SW,226,2.0,5.0,95,0.21,,,3.74,weatherlink.com 1.10,2013-05-08 00:08:00,
2013-05-07 20:23:00,49.0,48.0,29.86,South,190,0.0,2.0,95,0.02,,,3.74,weatherlink.com 1.10,2013-05-08 00:23:00,
2013-05-07 20:38:00,48.7,47.0,29.89,SW,217,2.0,6.0,95,0.30,,,4.04,weatherlink.com 1.10,2013-05-08 00:38:00,
2013-05-07 20:53:00,48.1,47.0,29.87,West,262,2.0,5.0,95,0.32,,,4.06,weatherlink.com 1.10,2013-05-08 00:53:00,
2013-05-07 21:10:00,48.7,48.0,29.87,West,259,1.0,5.0,96,0.34,,,4.08,weatherlink.com 1.10,2013-05-08 01:10:00,
2013-05-07 21:24:00,48.9,48.0,29.88,SSW,208,1.0,3.0,96,0.35,,,4.09,weatherlink.com 1.10,2013-05-08 01:24:00,
2013-05-07 21:39:00,48.9,48.0,29.88,West,281,0.0,3.0,96,0.06,,,4.10,weatherlink.com 1.10,2013-05-08 01:39:00,
2013-05-07 21:54:00,48.8,48.0,29.88,East,98,0.0,0.0,96,0.04,,,4.10,weatherlink.com 1.10,2013-05-08 01:54:00,
2013-05-07 22:09:00,48.8,48.0,29.89,East,98,0.0,0.0,96,0.02,,,4.10,weatherlink.com 1.10,2013-05-08 02:09:00,
2013-05-07 22:24:00,48.7,48.0,29.89,East,98,0.0,0.0,96,0.04,,,4.13,weatherlink.com 1.10,2013-05-08 02:24:00,
2013-05-07 22:39:00,48.5,48.0,29.89,East,98,0.0,0.0,96,0.07,,,4.17,weatherlink.com 1.10,2013-05-08 02:39:00,
2013-05-07 22:54:00,48.3,47.0,29.89,East,98,0.0,0.0,96,0.08,,,4.18,weatherlink.com 1.10,2013-05-08 02:54:00,
2013-05-07 23:09:00,47.7,47.0,29.90,East,98,0.0,0.0,96,0.09,,,4.19,weatherlink.com 1.10,2013-05-08 03:09:00,
2013-05-07 23:24:00,47.5,47.0,29.89,East,100,0.0,0.0,96,0.09,,,4.22,weatherlink.com 1.10,2013-05-08 03:24:00,
2013-05-07 23:39:00,47.5,47.0,29.88,ESE,104,0.0,0.0,96,0.06,,,4.23,weatherlink.com 1.10,2013-05-08 03:39:00,
2013-05-07 23:54:00,47.4,46.0,29.87,East,79,1.0,1.0,96,0.05,,,4.23,weatherlink.com 1.10,2013-05-08 03:54:00,